This demonstration page uses our WeatherBlox Daily Observations layout. Learn more.

Left ArrowRight Arrow

Hourly Observations for April 15, 2022

Temp ( °F °C ) Dew Point ( °F °C ) Humidity (%) Winds ( mph kmh ) Pressure ( in mb ) Visibility ( mi km ) Precip ( " mm )
12:53 am 00:53 Partly Cloudy 49 9.4 37 2.8 64 64 W 6 9 29.93 1014 10 16 0.00 0.00
1:53 am 01:53 Mostly Cloudy 48 8.9 37 2.8 66 66 NW 3 6 29.94 1014 10 16 0.00 0.00
2:53 am 02:53 Mostly Cloudy 45 7.2 40 4.4 83 83 Calm 29.96 1014 10 16 0.00 0.00
3:53 am 03:53 Mostly Cloudy 45 7.2 36 2.2 71 71 NNW 3 6 29.96 1015 10 16 0.00 0.00
4:53 am 04:53 Cloudy 43 6.1 38 3.3 82 82 NNW 3 6 29.96 1015 10 16 0.00 0.00
5:53 am 05:53 Mostly Cloudy 44 6.7 35 1.7 71 71 NW 3 6 29.98 1015 10 16 0.00 0.00
6:53 am 06:53 Mostly Cloudy 44 6.7 35 1.7 71 71 NW 5 7 29.99 1016 10 16 0.00 0.00
7:53 am 07:53 Mostly Cloudy 46 7.8 36 2.2 68 68 Calm 30.00 1016 10 16 0.00 0.00
8:53 am 08:53 Cloudy 48 8.9 34 1.1 58 58 NNW 6 9 30.01 1016 10 16 0.00 0.00
9:53 am 09:53 Cloudy 51 10.6 34 1.1 52 52 WNW 6 9 30.02 1017 10 16 0.00 0.00
10:53 am 10:53 Cloudy 55 12.8 34 1.1 45 45 VRB 3 6 30.02 1017 10 16 0.00 0.00
11:24 am 11:24 Mostly Cloudy 57 13.9 36 2.2 45 45 Calm 30.03 1017 10 16 0.00 0.00
11:42 am 11:42 Cloudy 56 13.3 38 3.3 51 51 VRB 3 6 30.02 1017 10 16 0.00 0.00
11:53 am 11:53 Mostly Cloudy 57 13.9 40 4.4 53 53 VRB 6 9 30.01 1016 10 16 0.00 0.00
12:53 pm 12:53 Partly Cloudy 60 15.6 41 5 50 50 undefined N/A 29.99 1016 10 16 0.00 0.00
1:53 pm 13:53 Sunny 62 16.7 41 5 46 46 W 8 13 29.96 1015 10 16 0.00 0.00
2:53 pm 14:53 Mostly Cloudy 62 16.7 37 2.8 40 40 SSW 8 13 29.94 1014 10 16 0.00 0.00
3:53 pm 15:53 Cloudy 63 17.2 29 -1.7 28 28 S 13 20 29.93 1013 10 16 0.00 0.00
4:53 pm 16:53 Cloudy with Light Rain 55 12.8 43 6.1 64 64 S 12 19 29.94 1014 5 8 0.01 0.25
5:53 pm 17:53 Cloudy with Light Rain 53 11.7 46 7.8 77 77 WNW 3 6 29.94 1014 8 13 0.02 0.51
6:53 pm 18:53 Cloudy with Light Rain 52 11.1 46 7.8 80 80 N 5 7 29.92 1013 10 16 0.03 0.76
7:53 pm 19:53 Cloudy with Light Rain 51 10.6 46 7.8 83 83 VRB 3 6 29.91 1013 8 13 0.04 1.02
8:53 pm 20:53 Cloudy with Light Rain 50 10 47 8.3 89 89 N 6 9 29.92 1013 9 14 0.02 0.51
9:53 pm 21:53 Cloudy with Light Rain 50 10 47 8.3 89 89 N 6 9 29.90 1013 10 16 0.03 0.76
10:53 pm 22:53 Cloudy with Light Rain 50 10 46 7.8 86 86 N 5 7 29.88 1012 9 14 0.02 0.51
11:53 pm 23:53 Cloudy with Light Rain 49 9.4 46 7.8 90 90 NW 5 7 29.85 1011 10 16 0.02 0.51

Powered by AerisWeather